{"data":{"norad_id":52692,"epoch":"2026-09-20T04:00:03.000096Z","epoch_age_seconds":95227,"freshness":"FRESH","line1":"1 52692U 22053AN  26263.16670139  .00117103  00000+0  39030-2 0  9997","line2":"2 52692  53.1609 348.8858 0001550 131.6205 105.8662 15.30209085  5582","mean_motion":15.30209085,"eccentricity":0.000155,"inclination_deg":53.1609,"raan_deg":348.8858,"arg_perigee_deg":131.6205,"mean_anomaly_deg":105.8662,"bstar":0.003903,"rev_number":558,"period_min":94.104786993864,"perigee_km":474.12567801489,"apogee_km":476.25020874734,"semimajor_km":6853.3249433811,"source":"CELESTRAK","updated_at":"2026-09-20T09:00:40.106912Z"}}